Weather History for KMDD - October, 2013

Change the Weather History Date:

Tuesday, October 15, 2013

  Actual Average (KMAF) Record (KMAF)
Temperature  
Mean Temperature 60 °F 65 °F  
Max Temperature 72 °F 78 °F 94 °F (1962)
Min Temperature 49 °F 52 °F 36 °F (1966)
Degree Days  
Heating Degree Days 4 3  
Month to date heating degree days 28  
Since 1 July heating degree days 39  
Cooling Degree Days 0 3  
Month to date cooling degree days 66  
Year to date cooling degree days 2245  
Growing Degree Days 10 (Base 50)    
Moisture  
Dew Point 54 °F    
Average Humidity 84    
Maximum Humidity 90    
Minimum Humidity 76    
Precipitation  
Precipitation 0.24 in 0.06 in 1.16 in (1981)
Month to date precipitation 0.98  
Year to date precipitation 12.56  
Snow  
Snow 0.00 in - - ()
Month to date snowfall  
Since 1 July snowfall  
Since 1 September snowfall  
Snow Depth -    
Sea Level Pressure  
Sea Level Pressure 30.07 in    
Wind  
Wind Speed 12 mph (ENE)    
Max Wind Speed 16 mph    
Max Gust Speed 23 mph    
Visibility 10 miles    
Events Rain , Thunderstorm    
T = Trace of Precipitation, MM = Missing Value Source: NWS Daily Summary

Daily Weather History Graph

Daily Weather History Graph

Search for Another Location

Airport or City:

Trip Planner

Search our weather history database for the weather conditions in past years. The results will help you decide how hot, cold, wet, or windy it might be!

Date:

Astronomy

Oct. 15, 2013 Rise Set
Actual Time 7:52 AM CDT 7:15 PM CDT
Civil Twilight 7:27 AM CDT 7:40 PM CDT
Nautical Twilight 6:59 AM CDT 8:08 PM CDT
Astronomical Twilight 6:30 AM CDT 8:36 PM CDT
Moon 5:12 PM CDT (10/15) 4:28 AM CDT (10/15)
Length of Visible Light 12h 12m
Length of Day
11h 23m
Waxing Gibbous, 88% of the Moon is Illuminated
Oct 15
Waxing Gibbous
Oct 18
Full
Oct 26
Last Quarter
Nov 3
New
Nov 9
First Quarter

Hourly Weather History & Observations

Time (CDT) Temp. Dew Point Humidity Pressure Visibility Wind Dir Wind Speed Gust Speed Precip Events Conditions
12:15 AM 72.5 °F 67.5 °F 84% 30.00 in 10.0 mi South 13.8 mph - N/A   Scattered Clouds
12:35 AM 72.1 °F 67.3 °F 85% 29.99 in 7.0 mi South 13.8 mph - N/A   Scattered Clouds
12:55 AM 72.0 °F 67.1 °F 85% 29.99 in 7.0 mi South 11.5 mph - N/A   Scattered Clouds
1:15 AM 71.8 °F 67.1 °F 85% 29.98 in 10.0 mi South 9.2 mph - N/A   Mostly Cloudy
1:35 AM 71.6 °F 67.1 °F 86% 29.98 in 10.0 mi South 12.7 mph - N/A   Scattered Clouds
1:55 AM 71.4 °F 66.9 °F 86% 29.97 in 10.0 mi South 11.5 mph - N/A   Mostly Cloudy
2:35 AM 71.2 °F 67.1 °F 87% 29.99 in 10.0 mi South 8.1 mph - N/A   Overcast
2:55 AM 71.1 °F 66.6 °F 86% 29.98 in 10.0 mi South 11.5 mph - N/A   Overcast
3:15 AM 71.1 °F 66.2 °F 85% 29.99 in 10.0 mi South 11.5 mph - N/A   Overcast
3:35 AM 70.9 °F 65.5 °F 83% 29.98 in 10.0 mi South 10.4 mph - N/A   Scattered Clouds
3:55 AM 70.9 °F 65.3 °F 82% 29.99 in 10.0 mi SSW 10.4 mph - N/A   Scattered Clouds
4:15 AM 70.7 °F 65.3 °F 83% 29.98 in 10.0 mi South 10.4 mph - N/A   Mostly Cloudy
4:35 AM 70.7 °F 65.5 °F 83% 29.98 in 10.0 mi SSW 15.0 mph 20.7 mph N/A   Scattered Clouds
4:55 AM 70.3 °F 65.5 °F 85% 29.98 in 10.0 mi SSW 11.5 mph - N/A   Clear
5:15 AM 70.3 °F 65.3 °F 84% 29.98 in 10.0 mi SSW 11.5 mph 19.6 mph N/A   Clear
5:35 AM 70.2 °F 64.8 °F 83% 29.97 in 10.0 mi SSW 16.1 mph - N/A   Clear
5:55 AM 70.0 °F 64.4 °F 82% 29.97 in 10.0 mi SSW 11.5 mph - N/A   Scattered Clouds
6:15 AM 69.8 °F 64.2 °F 82% 29.97 in 10.0 mi SSW 15.0 mph 19.6 mph N/A   Mostly Cloudy
6:35 AM 69.8 °F 63.9 °F 81% 29.98 in 10.0 mi SW 9.2 mph - N/A Thunderstorm Overcast
6:55 AM 69.8 °F 63.9 °F 81% 29.97 in 10.0 mi SW 10.4 mph 17.3 mph N/A   Overcast
7:15 AM 69.4 °F 64.4 °F 84% 29.98 in 10.0 mi SSW 10.4 mph 17.3 mph N/A   Overcast
7:35 AM 69.4 °F 64.4 °F 84% 29.98 in 10.0 mi SW 11.5 mph - N/A   Mostly Cloudy
7:55 AM 69.3 °F 64.0 °F 83% 29.99 in 10.0 mi SW 11.5 mph - N/A   Scattered Clouds
8:15 AM 69.3 °F 63.9 °F 83% 30.01 in 10.0 mi WSW 9.2 mph - N/A   Scattered Clouds
8:35 AM 68.9 °F 63.5 °F 83% 30.03 in 10.0 mi North 9.2 mph - N/A   Overcast
8:55 AM 64.8 °F 57.2 °F 76% 30.04 in 10.0 mi North 15.0 mph - N/A   Overcast
9:15 AM 60.8 °F 53.8 °F 78% 30.06 in 10.0 mi NNE 16.1 mph 23.0 mph N/A   Mostly Cloudy
9:35 AM 59.4 °F 52.7 °F 79% 30.07 in 10.0 mi NNE 12.7 mph - N/A   Overcast
9:55 AM 59.7 °F 53.6 °F 80% 30.09 in 10.0 mi NNE 15.0 mph 18.4 mph N/A   Overcast
10:15 AM 58.3 °F 53.4 °F 84% 30.10 in 10.0 mi NE 16.1 mph - N/A   Light Drizzle
10:35 AM 56.8 °F 52.2 °F 84% 30.11 in 10.0 mi NNE 10.4 mph - N/A Rain Rain
10:55 AM 55.8 °F 50.9 °F 84% 30.13 in 10.0 mi North 13.8 mph 17.3 mph N/A Rain Light Rain
11:15 AM 54.9 °F 50.0 °F 84% 30.13 in 10.0 mi NNE 10.4 mph - 0.01 in Rain Light Rain
11:35 AM 54.9 °F 50.0 °F 84% 30.13 in 10.0 mi NNE 12.7 mph - 0.02 in Rain Light Rain
11:55 AM 54.7 °F 49.8 °F 84% 30.13 in 10.0 mi NNE 13.8 mph - 0.03 in Rain Rain
12:15 PM 54.7 °F 50.0 °F 84% 30.12 in 10.0 mi NE 12.7 mph - 0.01 in Rain Light Rain
12:35 PM 54.7 °F 50.0 °F 84% 30.11 in 10.0 mi NNE 11.5 mph - 0.01 in Rain Light Rain
12:55 PM 53.8 °F 48.4 °F 82% 30.12 in 10.0 mi NE 16.1 mph - 0.02 in Rain Light Rain
1:15 PM 53.6 °F 47.8 °F 81% 30.10 in 10.0 mi NE 13.8 mph - N/A   Overcast
1:35 PM 53.2 °F 48.0 °F 82% 30.11 in 10.0 mi NE 13.8 mph - 0.01 in Rain Light Rain
1:55 PM 52.9 °F 48.4 °F 85% 30.10 in 10.0 mi NE 10.4 mph - 0.02 in Rain Light Rain
2:15 PM 53.2 °F 48.9 °F 85% 30.10 in 10.0 mi NE 11.5 mph - N/A Rain Light Rain
2:35 PM 52.9 °F 47.7 °F 82% 30.09 in 10.0 mi ENE 13.8 mph 18.4 mph N/A Rain Light Rain
2:55 PM 52.7 °F 47.5 °F 82% 30.09 in 10.0 mi NE 15.0 mph 18.4 mph 0.01 in Rain Light Rain
3:15 PM 52.2 °F 47.5 °F 84% 30.10 in 10.0 mi NNE 11.5 mph - 0.01 in Rain Light Rain
3:35 PM 51.4 °F 46.8 °F 84% 30.09 in 10.0 mi NE 12.7 mph - 0.02 in Rain Light Rain
3:55 PM 51.4 °F 47.1 °F 85% 30.09 in 10.0 mi NE 13.8 mph - 0.04 in Rain Light Rain
4:15 PM 51.1 °F 46.6 °F 85% 30.11 in 10.0 mi NE 13.8 mph - N/A Rain Light Rain
4:35 PM 50.9 °F 46.9 °F 86% 30.08 in 10.0 mi ENE 12.7 mph - 0.01 in Rain Light Rain
4:55 PM 50.7 °F 46.6 °F 86% 30.09 in 10.0 mi NE 13.8 mph - 0.02 in Rain Light Rain
5:15 PM 51.1 °F 47.7 °F 88% 30.10 in 10.0 mi ENE 10.4 mph - N/A Rain Rain
5:35 PM 50.5 °F 46.8 °F 87% 30.11 in 10.0 mi NNE 10.4 mph - 0.01 in Rain Light Rain
5:55 PM 50.2 °F 46.8 °F 88% 30.09 in 10.0 mi NE 12.7 mph - 0.03 in Rain Light Rain
6:15 PM 49.8 °F 45.9 °F 86% 30.08 in 10.0 mi ENE 11.5 mph 18.4 mph 0.02 in Rain Light Rain
6:35 PM 49.3 °F 45.9 °F 88% 30.09 in 10.0 mi NE 12.7 mph - 0.05 in Rain Light Rain
6:55 PM 49.1 °F 46.2 °F 90% 30.10 in 10.0 mi NNE 10.4 mph - 0.06 in Rain Light Rain
7:15 PM 49.1 °F 45.7 °F 88% 30.10 in 10.0 mi NE 12.7 mph - 0.01 in   Overcast
7:55 PM 49.3 °F 45.7 °F 87% 30.12 in 10.0 mi NE 12.7 mph - 0.01 in   Overcast
8:15 PM 49.5 °F 46.0 °F 88% 30.12 in 10.0 mi ENE 9.2 mph - N/A   Overcast
8:35 PM 49.3 °F 45.0 °F 85% 30.12 in 10.0 mi NE 10.4 mph - N/A   Overcast
8:55 PM 49.5 °F 44.8 °F 84% 30.14 in 10.0 mi ENE 9.2 mph - N/A   Overcast
9:15 PM 49.8 °F 44.8 °F 83% 30.14 in 10.0 mi NE 10.4 mph - N/A   Overcast
9:35 PM 49.8 °F 44.1 °F 81% 30.13 in 10.0 mi NE 10.4 mph - N/A   Overcast
9:55 PM 50.0 °F 45.0 °F 83% 30.14 in 10.0 mi ENE 8.1 mph - N/A   Overcast
10:15 PM 50.0 °F 45.0 °F 83% 30.15 in 10.0 mi ENE 8.1 mph - N/A   Overcast
10:35 PM 50.0 °F 43.7 °F 79% 30.15 in 10.0 mi ENE 8.1 mph - N/A   Overcast
10:55 PM 50.0 °F 43.9 °F 79% 30.15 in 10.0 mi ENE 5.8 mph - N/A   Overcast
11:15 PM 50.2 °F 44.6 °F 81% 30.15 in 10.0 mi ENE 5.8 mph - N/A   Overcast
11:35 PM 50.0 °F 43.9 °F 79% 30.16 in 10.0 mi ENE 8.1 mph - N/A   Overcast
11:55 PM 50.4 °F 44.6 °F 81% 30.15 in 10.0 mi NE 8.1 mph - N/A   Overcast